• In Netherlands
  • List of Countries
  • For 7 days
  • Water Temperature
  • Satellite Maps
  • Weather Map
  • Weather Widgets
  • user-avatar
    Login

    Hourly Weather Pamporovo

    Today, 22 January, Sunday

    Time Temperature Precipitation Wind Pressure Humidity
    00:00 -18°C° 0 mm 1 mps 624 mmHg 94%
    01:00 -19°C° 0 mm 1 mps 624 mmHg 93%
    02:00 -19°C° 0 mm 1 mps 624 mmHg 90%
    03:00 -18°C° 0 mm 1 mps 624 mmHg 88%
    04:00 -18°C° 0 mm 1 mps 624 mmHg 86%
    05:00 -18°C° 0 mm 1 mps 625 mmHg 85%
    06:00 -18°C° 0 mm 1 mps 625 mmHg 83%
    07:00 -17°C° 0 mm 1 mps 625 mmHg 82%
    08:00 -16°C° 0 mm 1 mps 626 mmHg 81%
    09:00 -13°C° 0 mm 1 mps 628 mmHg 82%
    10:00 -10°C° 0 mm 1 mps 629 mmHg 84%
    11:00 -7°C° 0 mm 1 mps 631 mmHg 86%
    12:00 -6°C° 0 mm 1 mps 631 mmHg 88%
    13:00 -6°C° 0 mm 1 mps 631 mmHg 89%
    14:00 -4°C° 0 mm 1 mps 631 mmHg 90%
    15:00 -8°C° 0 mm 1 mps 630 mmHg 92%
    16:00 -10°C° 0 mm 1 mps 629 mmHg 94%
    17:00 -12°C° 0 mm 1 mps 628 mmHg 96%
    18:00 -13°C° 0 mm 1 mps 628 mmHg 96%
    19:00 -13°C° 0 mm 1 mps 627 mmHg 96%
    20:00 -14°C° 0 mm 1 mps 627 mmHg 97%
    21:00 -15°C° 0 mm 1 mps 627 mmHg 97%
    22:00 -15°C° 0 mm 1 mps 626 mmHg 97%
    23:00 -16°C° 0 mm 1 mps 626 mmHg 98%

    Tomorrow, 23 January, Monday

    Time Temperature Precipitation Wind Pressure Humidity
    00:00 -16°C° 0 mm 1 mps 626 mmHg 98%
    01:00 -16°C° 0 mm 1 mps 626 mmHg 98%
    02:00 -16°C° 0 mm 1 mps 626 mmHg 98%
    03:00 -16°C° 0 mm 1 mps 626 mmHg 98%
    04:00 -16°C° 0 mm 1 mps 625 mmHg 98%
    05:00 -16°C° 0 mm 1 mps 625 mmHg 98%
    06:00 -16°C° 0 mm 1 mps 625 mmHg 98%
    07:00 -16°C° 0 mm 1 mps 625 mmHg 98%
    08:00 -17°C° 0 mm 1 mps 625 mmHg 98%
    09:00 -13°C° 0 mm 1 mps 626 mmHg 96%
    10:00 -10°C° 0 mm 1 mps 628 mmHg 94%
    11:00 -6°C° 0 mm 1 mps 629 mmHg 93%
    12:00 -6°C° 0 mm 1 mps 629 mmHg 93%
    13:00 -6°C° 0 mm 1 mps 629 mmHg 93%
    14:00 -4°C° 0 mm 1 mps 628 mmHg 94%
    15:00 -6°C° 0 mm 1 mps 628 mmHg 95%
    16:00 -7°C° 0 mm 1 mps 627 mmHg 96%
    17:00 -8°C° 0 mm 1 mps 626 mmHg 97%
    18:00 -11°C° 0 mm 1 mps 625 mmHg 97%
    19:00 -13°C° 0 mm 1 mps 623 mmHg 98%
    20:00 -16°C° 0 mm 1 mps 622 mmHg 98%
    21:00 -16°C° 0 mm 1 mps 622 mmHg 98%
    22:00 -16°C° 0 mm 1 mps 622 mmHg 98%
    23:00 -15°C° 0 mm 1 mps 622 mmHg 97%

    Day after tomorrow, 24 January, Tuesday

    Time Temperature Precipitation Wind Pressure Humidity
    00:00 -15°C° 0 mm 1 mps 621 mmHg 97%
    01:00 -15°C° 0 mm 1 mps 621 mmHg 97%
    02:00 -15°C° 0 mm 1 mps 621 mmHg 96%
    03:00 -15°C° 0 mm 1 mps 621 mmHg 95%
    04:00 -14°C° 0 mm 1 mps 620 mmHg 93%
    05:00 -13°C° 0 mm 1 mps 620 mmHg 92%
    06:00 -12°C° 0.1 mm 1 mps 621 mmHg 92%
    07:00 -11°C° 0.1 mm 1 mps 621 mmHg 91%
    08:00 -10°C° 0.1 mm 1 mps 621 mmHg 91%
    09:00 -9°C° 0.2 mm 1 mps 622 mmHg 92%
    10:00 -7°C° 0.2 mm 1 mps 623 mmHg 93%
    11:00 -6°C° 0.2 mm 1 mps 623 mmHg 95%
    12:00 -4°C° 0.3 mm 1 mps 623 mmHg 95%
    13:00 -4°C° 0.3 mm 1 mps 623 mmHg 95%
    14:00 -4°C° 0.3 mm 1 mps 622 mmHg 96%
    15:00 -4°C° 0.3 mm 1 mps 622 mmHg 96%
    16:00 -6°C° 0.3 mm 1 mps 621 mmHg 97%
    17:00 -6°C° 0.3 mm 1 mps 621 mmHg 97%
    18:00 -7°C° 0.5 mm 1 mps 621 mmHg 97%
    19:00 -7°C° 0.5 mm 1 mps 621 mmHg 97%
    20:00 -8°C° 0.5 mm 1 mps 621 mmHg 97%
    21:00 -8°C° 0.8 mm 2 mps 621 mmHg 97%
    22:00 -8°C° 0.8 mm 2 mps 621 mmHg 97%
    23:00 -8°C° 0.8 mm 2 mps 621 mmHg 96%

    25 January, Wednesday

    Time Temperature Precipitation Wind Pressure Humidity
    00:00 -8°C° 0.8 mm 2 mps 621 mmHg 96%
    01:00 -8°C° 0.8 mm 2 mps 621 mmHg 96%
    02:00 -8°C° 0.8 mm 2 mps 621 mmHg 96%
    03:00 -9°C° 0.6 mm 2 mps 621 mmHg 96%
    04:00 -9°C° 0.6 mm 2 mps 621 mmHg 96%
    05:00 -9°C° 0.6 mm 2 mps 621 mmHg 96%
    06:00 -9°C° 0.5 mm 2 mps 622 mmHg 96%
    07:00 -9°C° 0.5 mm 2 mps 622 mmHg 96%
    08:00 -9°C° 0.5 mm 2 mps 623 mmHg 96%
    09:00 -9°C° 0.3 mm 2 mps 623 mmHg 96%
    10:00 -9°C° 0.3 mm 2 mps 624 mmHg 96%
    11:00 -8°C° 0.3 mm 2 mps 624 mmHg 95%
    12:00 -8°C° 0.2 mm 2 mps 624 mmHg 95%
    13:00 -8°C° 0.2 mm 2 mps 624 mmHg 95%
    14:00 -7°C° 0.2 mm 2 mps 624 mmHg 95%
    15:00 -8°C° 0.1 mm 2 mps 624 mmHg 95%
    16:00 -8°C° 0.1 mm 1 mps 624 mmHg 95%
    17:00 -8°C° 0.1 mm 1 mps 624 mmHg 96%
    18:00 -9°C° 0 mm 1 mps 624 mmHg 96%
    19:00 -10°C° 0 mm 1 mps 624 mmHg 96%
    20:00 -10°C° 0 mm 1 mps 625 mmHg 96%
    21:00 -11°C° 0 mm 1 mps 625 mmHg 96%
    22:00 -11°C° 0 mm 1 mps 625 mmHg 96%
    23:00 -11°C° 0 mm 1 mps 625 mmHg 96%

    26 January, Thursday

    Time Temperature Precipitation Wind Pressure Humidity
    00:00 -12°C° 0 mm 1 mps 625 mmHg 95%
    01:00 -13°C° 0 mm 1 mps 625 mmHg 95%
    02:00 -15°C° 0 mm 2 mps 625 mmHg 95%
    03:00 -15°C° 0 mm 2 mps 625 mmHg 95%
    04:00 -15°C° 0 mm 2 mps 625 mmHg 95%
    05:00 -15°C° 0 mm 2 mps 625 mmHg 95%
    06:00 -16°C° 0 mm 2 mps 625 mmHg 95%
    07:00 -16°C° 0 mm 2 mps 625 mmHg 95%
    08:00 -16°C° 0 mm 2 mps 626 mmHg 95%
    09:00 -14°C° 0 mm 2 mps 627 mmHg 93%
    10:00 -13°C° 0 mm 2 mps 628 mmHg 92%
    11:00 -10°C° 0 mm 2 mps 629 mmHg 90%
    12:00 -10°C° 0 mm 2 mps 629 mmHg 90%
    13:00 -10°C° 0 mm 2 mps 629 mmHg 89%
    14:00 -10°C° 0 mm 2 mps 629 mmHg 89%
    15:00 -12°C° 0 mm 2 mps 628 mmHg 90%
    16:00 -14°C° 0 mm 2 mps 628 mmHg 92%
    17:00 -15°C° 0 mm 2 mps 627 mmHg 93%
    18:00 -17°C° 0 mm 2 mps 627 mmHg 94%
    19:00 -18°C° 0 mm 2 mps 627 mmHg 94%
    20:00 -20°C° 0 mm 2 mps 626 mmHg 94%
    21:00 -20°C° 0 mm 2 mps 626 mmHg 94%
    22:00 -21°C° 0 mm 2 mps 627 mmHg 93%
    23:00 -21°C° 0 mm 2 mps 627 mmHg 93%

    27 January, Friday

    Time Temperature Precipitation Wind Pressure Humidity
    00:00 -21°C° 0 mm 2 mps 627 mmHg 92%
    01:00 -23°C° 0 mm 2 mps 627 mmHg 91%
    02:00 -23°C° 0 mm 2 mps 626 mmHg 90%
    03:00 -23°C° 0 mm 2 mps 626 mmHg 90%
    04:00 -23°C° 0 mm 2 mps 627 mmHg 90%
    05:00 -23°C° 0 mm 2 mps 627 mmHg 89%
    06:00 -23°C° 0 mm 2 mps 627 mmHg 88%
    07:00 -21°C° 0 mm 2 mps 627 mmHg 88%
    08:00 -21°C° 0 mm 2 mps 627 mmHg 87%
    09:00 -19°C° 0 mm 2 mps 629 mmHg 86%
    10:00 -14°C° 0 mm 1 mps 630 mmHg 84%
    11:00 -11°C° 0 mm 1 mps 631 mmHg 83%
    12:00 -11°C° 0 mm 1 mps 631 mmHg 82%
    13:00 -10°C° 0 mm 1 mps 631 mmHg 81%
    14:00 -9°C° 0 mm 1 mps 631 mmHg 81%
    15:00 -11°C° 0 mm 1 mps 630 mmHg 83%
    16:00 -13°C° 0 mm 1 mps 629 mmHg 85%
    17:00 -14°C° 0 mm 1 mps 628 mmHg 88%
    18:00 -15°C° 0 mm 1 mps 628 mmHg 86%
    19:00 -15°C° 0 mm 1 mps 628 mmHg 84%
    20:00 -17°C° 0 mm 2 mps 627 mmHg 83%
    21:00 -17°C° 0 mm 2 mps 627 mmHg 82%
    22:00 -16°C° 0 mm 2 mps 627 mmHg 81%
    23:00 -16°C° 0 mm 2 mps 627 mmHg 80%
    Show more